CAPE
19 3 3 22 13 20 37 19 6 0 0 0 0 0 0 0 0 0 0 0 0 0 0 0 0 0 0 0 0 0 0 0 0 0 0 0 0 0 0 0 0 0 0 0 0
33 22 8 13 26 8 6 18 6 4 0 0 0 0 0 0 0 0 0 0 0 0 0 0 0 0 0 0 0 0 0 0 0 0 0 0 0 0 0 0 0 0 0 0 0
27 28 31 23 26 31 14 1 8 5 5 0 0 0 0 0 0 0 0 0 0 0 0 0 0 0 0 0 0 0 0 0 0 0 0 0 0 0 0 0 0 0 0 0 0
18 26 37 32 36 42 46 16 13 16 10 1 0 0 0 0 0 0 0 0 0 0 0 0 0 0 0 0 0 0 0 0 0 0 0 0 0 0 0 0 0 0 0 0 0
22 5 15 25 22 41 40 31 19 16 27 8 9 1 1 0 0 0 0 0 0 0 0 0 0 0 0 0 0 0 0 0 0 0 0 0 0 0 0 0 0 0 0 0 0
15 6 7 13 2 24 47 33 27 24 11 19 6 7 0 0 0 0 0 0 0 0 0 0 0 0 0 0 0 0 0 0 0 0 0 0 0 0 0 0 0 0 0 0 0
32 12 9 10 9 5 31 28 38 37 19 30 12 10 7 0 0 0 0 0 0 0 0 0 0 0 0 0 0 0 0 0 0 0 0 0 0 0 0 0 0 0 0 0 0
44 44 20 30 18 9 29 33 20 15 30 33 11 10 1 0 0 0 0 0 0 0 0 0 0 0 0 0 0 0 0 0 0 0 0 0 0 0 0 0 0 0 0 0 0
36 48 40 20 9 12 28 17 18 40 73 16 34 9 5 0 0 0 0 0 1 0 4 0 0 0 6 0 0 0 0 0 0 0 0 0 0 0 0 0 0 0 0 0 0
34 43 43 50 29 20 0 17 20 30 25 32 35 20 0 0 0 0 0 0 26 33 20 16 0 0 0 0 0 0 0 0 0 0 0 0 0 0 0 0 0 0 0 0 0
39 56 57 54 44 72 14 10 25 5 33 1 30 13 0 0 0 0 0 0 3 13 2 9 0 0 0 0 0 0 0 0 0 0 0 0 0 0 0 0 0 0 0 0 0
30 57 60 77 91 71 58 18 14 4 1 3 42 23 0 0 0 0 0 0 5 0 15 2 0 0 0 0 0 0 0 0 0 0 0 0 0 0 0 0 0 0 0 0 0
26 40 62 81 91 104 32 4 18 1 25 0 0 18 2 0 0 0 0 0 0 0 0 0 0 0 0 0 0 0 0 0 0 0 0 0 0 0 0 0 0 0 0 0 0
21 69 84 104 82 17 20 0 23 8 10 3 7 28 4 0 0 0 0 0 22 0 2 0 0 0 0 0 0 0 0 0 0 0 0 0 0 0 0 0 0 0 0 0 0
71 77 109 142 34 44 0 12 36 4 14 1 3 8 9 1 0 0 0 1 0 0 0 0 0 0 0 0 0 0 0 0 0 0 0 0 0 0 0 0 0 0 0 0 0
88 117 142 102 47 16 19 43 25 14 1 10 8 9 5 4 0 0 0 4 0 0 0 0 0 0 0 0 0 0 0 0 0 5 1 0 0 0 0 0 0 0 0 0 0
178 190 122 84 8 1 0 100 7 15 0 1 10 9 3 0 2 0 0 6 6 8 10 7 5 4 1 0 0 1 1 0 0 7 0 0 0 0 0 0 0 0 0 0 0
241 186 103 36 6 11 11 35 7 0 0 0 9 15 6 0 1 1 1 3 8 0 0 0 2 5 0 15 1 7 4 0 0 0 0 0 1 0 0 0 0 0 0 0 0
164 63 27 0 0 1 8 0 0 0 0 1 4 8 13 1 0 0 1 1 4 0 0 0 0 0 0 10 7 2 9 0 0 0 0 0 0 0 0 0 0 0 0 0 0
9 17 5 11 4 0 0 0 1 0 3 15 25 5 9 5 4 2 1 0 2 0 0 0 0 0 0 22 34 18 12 16 28 5 2 0 0 0 0 0 0 0 0 0 0
0 1 0 20 1 0 0 0 0 0 1 35 36 40 23 13 0 1 0 0 0 0 0 0 0 0 0 0 0 13 13 9 9 15 3 0 0 0 0 0 0 0 0 0 0
0 0 0 6 0 0 0 0 0 0 0 0 0 2 4 4 9 1 0 0 0 0 0 0 0 0 0 0 0 0 0 0 0 0 0 0 0 0 0 0 0 0 0 0 0
4 0 4 12 0 0 0 0 0 0 0 0 0 0 0 0 0 4 0 0 0 0 0 0 0 0 0 0 0 7 0 7 10 0 0 0 0 0 0 0 0 0 0 0 0
0 0 4 10 0 0 0 0 0 1 3 0 0 0 0 3 0 0 0 0 0 0 0 0 0 0 0 0 0 0 0 0 0 2 0 0 0 0 0 0 0 0 0 0 0
0 0 0 1 0 0 0 0 0 0 0 0 0 0 0 2 3 4 0 0 0 0 0 0 0 0 0 0 0 0 0 0 6 0 0 0 0 0 0 0 0 0 0 0 0
1 0 0 0 0 0 0 0 0 0 0 0 0 0 0 0 0 0 0 0 0 0 0 0 0 0 0 0 0 0 0 0 0 0 20 0 0 0 0 0 0 0 0 0 0
0 0 0 0 0 0 0 0 0 0 0 0 0 0 0 0 0 0 0 0 0 0 0 0 0 0 0 0 0 0 0 0 0 0 0 0 0 0 0 0 0 0 0 0 0
CIN
-1 -1 0 0 -6 -2 -3 -4 -4 0 0 0 0 0 0 0 0 0 0 0 0 0 0 0 0 0 0 0 0 0 0 0 0 0 0 0 0 0 0 0 0 0 0 0 0
0 0 0 -4 -5 -20 -7 -6 -17 -14 0 0 0 0 0 0 0 0 0 0 0 0 0 0 0 0 0 0 0 0 0 0 0 0 0 0 0 0 0 0 0 0 0 0 0
0 0 0 0 0 -1 -24 -35 -10 -15 -17 0 0 0 0 0 0 0 0 0 0 0 0 0 0 0 0 0 0 0 0 0 0 0 0 0 0 0 0 0 0 0 0 0 0
0 0 0 0 0 0 0 -19 -39 -21 -23 -17 0 0 0 0 0 0 0 0 0 0 0 0 0 0 0 0 0 0 0 0 0 0 0 0 0 0 0 0 0 0 0 0 0
-1 -3 0 0 0 0 -1 -2 -20 -43 -15 -22 -27 -5 -4 0 0 0 0 0 0 0 0 0 0 0 0 0 0 0 0 0 0 0 0 0 0 0 0 0 0 0 0 0 0
-2 -6 -1 0 0 0 0 -1 -5 -18 -29 -18 -28 -4 0 0 0 0 0 0 0 0 0 0 0 0 0 0 0 0 0 0 0 0 0 0 0 0 0 0 0 0 0 0 0
-4 -2 -5 -1 -1 -2 0 -1 -3 -5 -16 -13 -28 -3 0 0 0 0 0 0 0 0 0 0 0 0 0 0 0 0 0 0 0 0 0 0 0 0 0 0 0 0 0 0 0
-2 -1 0 0 -1 -3 0 -1 -5 -13 -9 -12 -13 -2 0 0 0 0 0 0 0 0 0 0 0 0 0 0 0 0 0 0 0 0 0 0 0 0 0 0 0 0 0 0 0
-2 -6 -2 -3 -1 -3 -5 -7 -6 -6 -6 -14 -1 -15 -1 0 0 0 0 0 -3 0 -1 0 0 -1 -4 0 0 0 0 0 0 0 0 0 0 0 0 0 0 0 0 0 0
-4 -3 -7 0 -1 -3 -16 -15 -11 -3 -6 -4 -2 -7 0 0 0 0 0 0 -7 -9 -1 0 0 0 0 0 0 0 0 0 0 0 0 0 0 0 0 0 0 0 0 0 0
-7 -1 -5 0 -2 0 -5 -15 -7 0 -1 -1 -1 -3 0 0 0 0 0 0 -5 -2 0 -1 0 0 0 0 0 0 0 0 0 0 0 0 0 0 0 0 0 0 0 0 0
-13 -2 0 0 0 0 -1 -23 -3 -7 0 0 -4 -2 0 0 0 0 0 0 -1 0 -1 0 0 0 0 0 0 0 0 0 0 0 0 0 0 0 0 0 0 0 0 0 0
-1 -1 0 0 -1 -1 -5 -1 -10 -30 0 0 0 -9 -16 0 0 0 0 0 0 0 0 0 0 0 0 0 0 0 0 0 0 0 0 0 0 0 0 0 0 0 0 0 0
-1 0 0 0 -2 -13 -1 0 -12 -36 -18 -5 -2 -5 -17 0 0 0 0 0 -1 -1 -1 0 0 0 0 0 0 0 0 0 0 0 0 0 0 0 0 0 0 0 0 0 0
-1 0 0 -1 -1 0 0 -6 -8 -28 -12 -1 -4 -6 -15 -1 0 0 0 -3 0 0 0 0 0 0 0 0 0 0 0 0 0 0 0 0 0 0 0 0 0 0 0 0 0
0 0 0 -3 0 -3 -3 -9 -32 -28 -32 -19 -12 0 -1 0 0 0 0 -9 0 -1 0 0 0 0 0 0 0 0 0 0 0 -1 -3 0 0 0 0 0 0 0 0 0 0
0 0 -1 -8 -14 -1 -5 0 -28 -7 0 -11 -2 0 -2 0 0 0 0 0 -1 -4 0 -1 -4 -8 -5 -1 -3 -1 -1 0 -1 -1 0 0 0 0 0 0 0 0 0 0 0
0 0 -3 -12 -2 -3 0 0 -10 0 -29 -11 -41 -17 0 0 -10 0 0 0 -1 0 0 0 0 -5 -1 -1 -1 0 0 0 0 0 0 0 -1 0 0 0 0 0 0 0 0
-5 -6 -6 -1 0 -4 -1 -9 0 0 0 -5 -47 -1 -3 -10 -1 0 0 0 0 0 0 0 0 0 0 -3 -3 -2 -2 -1 0 0 0 0 0 0 0 0 0 0 0 0 0
-5 -3 0 -5 -4 -1 0 0 -2 0 -91 -25 -50 -14 -9 -5 -1 -19 0 0 0 -1 0 0 0 0 0 -4 -3 -2 -5 -2 -2 -2 -3 0 0 0 0 0 0 0 0 0 0
-1 0 0 -8 -1 0 0 0 0 0 0 -15 -28 -37 -33 -50 0 0 0 0 0 0 0 0 0 0 0 -1 0 -1 -2 -7 -12 -7 -11 0 0 0 0 0 0 0 0 0 0
0 0 0 -6 0 0 0 0 0 0 0 0 0 -126 -85 -7 -2 0 0 0 0 0 0 0 0 0 0 0 0 0 0 0 -2 0 -4 -1 -4 0 0 0 0 0 0 0 0
-2 0 -4 0 -2 0 0 0 0 0 -1 0 0 0 0 -3 -4 -11 0 0 0 0 0 0 0 0 0 0 0 -4 -1 -8 -15 -1 0 0 0 0 0 0 0 0 0 0 0
0 0 -3 -11 0 0 0 0 0 -12 -4 0 0 0 0 -2 0 0 0 0 0 0 0 0 0 0 0 0 0 0 0 0 0 -1 0 0 0 0 0 0 0 0 0 0 0
0 0 0 -2 0 0 0 0 0 0 -6 0 0 0 0 -43 -21 -47 -1 0 0 0 0 -2 0 0 0 0 0 0 0 0 -6 0 0 0 0 0 0 0 0 0 0 0 0
-13 0 0 0 0 0 0 0 0 0 0 0 0 0 0 0 0 0 0 0 0 0 0 0 0 0 0 0 0 0 0 0 0 0 -16 0 0 0 0 0 0 0 0 0 0
0 0 -4 0 0 0 0 0 0 0 0 0 0 0 0 0 0 0 0 0 0 0 0 0 0 0 0 0 0 0 0 0 0 0 0 0 0 0 0 0 0 0 0 0 0
Wind_Speed
39 40 39 38 36 36 33 31 31 30 30 30 29 30 31 32 33 33 39 32 27 30 29 30 27 25 22 21 20 18 20 23 21 19 19 14 13 13 14 14 15 14 16 17 14
39 40 40 40 38 36 36 34 31 30 29 29 29 28 29 29 33 41 34 33 34 31 29 28 28 25 23 22 20 19 20 20 18 19 19 17 16 13 14 14 15 15 15 15 11
40 40 40 41 41 38 36 35 33 32 29 29 28 27 26 26 33 36 30 38 36 30 27 25 25 23 23 21 21 20 22 19 20 18 18 20 19 17 16 16 14 14 14 14 9
42 40 40 40 41 40 37 36 35 33 31 29 28 26 25 26 37 23 22 26 29 26 25 22 22 23 24 23 21 26 23 21 21 20 20 22 21 21 14 17 19 15 17 12 7
43 42 41 40 40 40 39 37 36 35 32 30 28 26 25 33 36 25 27 27 20 21 23 22 24 23 28 24 23 26 23 23 23 22 22 22 23 23 20 17 16 19 19 16 9
45 45 43 41 40 40 40 37 36 35 33 30 29 25 31 45 30 30 31 24 19 19 23 21 24 23 26 27 25 23 24 26 26 26 26 28 31 24 20 20 17 17 18 17 10
46 46 45 43 42 40 40 38 36 35 33 30 28 29 39 42 26 24 26 26 24 19 20 22 22 23 24 27 27 27 32 30 27 26 27 24 36 16 22 23 22 20 19 21 15
45 45 45 43 42 41 39 38 36 34 33 29 27 31 47 33 36 35 27 29 24 22 22 20 20 23 25 25 26 29 32 40 31 26 27 23 48 25 22 22 24 23 24 24 19
45 45 44 44 42 39 38 38 36 34 33 30 30 34 47 28 35 33 32 31 26 23 22 22 23 28 27 31 36 33 41 38 37 23 25 27 42 30 24 23 27 28 25 24 29
46 45 45 43 43 40 37 35 33 32 32 32 33 36 40 39 30 29 28 28 27 24 26 27 28 35 35 35 48 41 40 38 39 28 28 36 42 36 33 32 33 30 30 34 37
45 45 46 43 43 40 37 31 35 38 38 44 36 44 30 27 26 27 24 24 28 28 37 31 39 48 41 37 36 35 40 43 37 32 33 39 45 46 38 36 36 36 36 35 38
44 45 43 44 42 41 38 41 39 30 44 45 42 39 31 26 32 29 21 29 32 39 31 36 54 41 36 37 39 41 41 43 38 34 35 42 50 46 42 40 37 38 39 37 35
44 43 42 42 41 42 46 48 33 30 40 44 50 42 39 33 38 33 28 29 35 38 42 47 42 37 37 38 43 45 47 42 40 34 35 43 59 49 44 39 36 34 33 33 32
41 40 40 40 42 42 49 41 34 28 51 50 46 47 42 31 42 32 32 30 33 43 38 46 46 37 40 47 40 51 40 39 41 41 49 33 64 49 41 39 32 30 29 29 30
34 37 37 37 36 40 42 35 31 28 69 43 45 30 34 51 41 37 29 32 39 36 35 47 40 45 44 43 35 45 33 37 39 42 44 46 47 50 37 41 39 33 31 29 29
33 34 35 36 36 31 32 32 34 55 62 43 39 45 46 42 41 35 36 32 31 35 40 40 31 35 46 37 34 31 32 34 36 40 55 53 46 67 51 45 39 34 32 32 31
31 35 35 31 34 32 28 35 55 74 39 40 44 46 50 50 47 39 42 44 42 42 46 43 43 34 32 38 35 34 35 47 49 50 61 41 42 55 33 32 34 33 31 26 24
23 29 37 35 31 24 34 46 67 62 51 32 39 44 54 44 48 45 46 49 43 40 41 47 53 46 35 39 40 40 39 46 55 57 56 38 50 54 38 38 43 39 34 27 23
22 27 33 38 34 33 38 57 48 54 35 43 32 47 50 47 42 46 51 53 48 42 45 47 52 34 38 33 33 39 48 39 45 40 47 47 46 50 44 42 35 29 24 21 17
17 22 32 28 22 29 43 47 39 41 42 34 47 41 49 49 50 51 52 52 49 45 36 36 47 37 32 31 37 36 29 43 45 57 61 50 50 51 40 38 36 32 25 18 15
15 24 23 16 22 33 41 43 38 26 31 41 43 38 46 43 45 50 52 44 46 44 39 34 38 37 29 41 44 39 43 38 39 44 50 57 55 37 39 32 26 20 12 11 10
17 26 20 21 35 32 36 33 33 35 27 27 32 33 30 39 46 42 48 44 42 38 46 37 35 44 40 35 35 39 41 41 47 49 46 45 48 29 30 28 22 17 12 11 12
21 23 18 22 37 33 34 31 31 35 30 28 31 35 33 33 36 36 42 41 32 38 41 37 41 45 42 37 34 41 41 38 38 38 48 50 50 30 27 21 16 13 12 13 12
20 26 28 29 30 38 36 37 35 31 32 31 29 29 35 42 40 30 38 34 35 37 33 33 44 49 54 45 30 37 39 36 39 48 50 48 46 38 31 24 18 15 14 13 14
19 27 26 34 37 37 37 35 39 38 31 30 31 38 36 35 44 43 38 29 31 33 34 34 44 42 43 36 30 36 37 37 39 43 46 44 42 39 31 23 18 17 16 17 20
15 22 24 29 32 37 35 38 41 34 32 36 40 38 39 42 43 35 32 33 34 35 35 33 36 37 40 37 38 37 32 31 35 37 39 38 38 31 26 21 22 22 23 23 23
16 16 19 28 27 31 39 41 39 32 32 38 40 38 47 49 39 46 26 31 31 33 35 34 34 31 45 36 36 44 41 33 31 31 30 35 29 24 24 26 27 26 25 25 25
Wind_Direction
271 269 268 267 268 265 266 267 268 269 270 272 273 274 274 274 274 271 261 267 273 273 277 273 277 284 293 293 294 299 290 279 283 283 289 310 313 328 330 331 331 349 352 345 24
272 269 267 266 266 266 266 266 267 268 269 271 273 275 276 278 273 262 268 268 264 270 275 276 276 282 285 288 293 291 284 285 294 294 293 299 302 314 322 326 327 340 351 357 26
274 272 269 266 264 265 265 265 266 266 268 269 271 274 278 280 273 269 276 262 261 268 272 278 280 283 282 286 287 289 283 289 292 297 298 293 295 305 307 311 321 334 345 353 33
272 272 271 268 264 263 263 265 264 266 266 267 269 272 275 274 263 277 288 285 268 265 270 275 278 276 278 278 283 279 283 288 290 294 294 292 297 299 310 308 313 323 326 346 10
269 269 271 269 267 264 262 263 264 263 264 264 265 267 270 265 262 277 283 290 277 262 264 267 270 273 271 278 278 277 281 283 286 289 291 294 293 297 300 306 315 314 317 324 334
268 266 268 268 267 265 263 264 263 262 261 261 262 262 265 261 271 275 277 285 283 260 263 264 272 273 278 274 272 284 281 283 283 283 287 287 285 294 301 302 304 308 313 319 324
268 266 265 266 266 265 263 262 263 262 260 260 259 259 261 260 273 280 277 274 275 265 264 265 272 270 277 276 277 278 276 281 281 282 283 292 280 269 290 296 298 302 306 310 315
268 267 264 264 264 262 263 262 262 262 259 258 259 259 262 265 264 268 278 270 273 267 266 269 271 274 272 279 281 275 274 270 278 276 285 282 266 292 295 291 292 295 299 303 309
267 266 264 261 261 262 262 261 261 261 259 257 258 258 263 263 259 264 263 265 266 267 265 268 269 266 268 267 269 271 267 270 275 281 284 273 277 292 293 288 290 293 298 302 301
266 264 263 260 259 259 260 260 261 262 259 258 257 256 260 260 261 263 263 255 260 256 260 260 261 259 259 256 259 265 269 273 273 285 276 276 276 280 284 289 288 292 294 294 294
265 263 260 259 256 255 255 256 251 252 247 241 252 249 262 264 262 259 251 248 256 251 252 253 254 251 252 257 264 271 269 270 277 279 281 277 277 277 284 284 286 289 290 292 292
264 262 259 257 255 252 248 247 245 258 251 246 250 247 259 258 259 252 238 247 248 249 252 253 253 260 259 258 261 265 268 270 278 279 279 280 278 280 281 283 284 286 288 291 294
262 259 257 255 254 250 244 243 252 258 257 251 242 249 249 249 255 248 233 246 246 247 247 251 261 255 256 257 258 261 262 269 273 282 281 282 276 278 280 282 284 285 287 289 292
258 255 253 252 250 247 243 241 247 254 254 251 242 246 243 251 253 254 237 240 254 248 251 257 256 264 256 254 254 260 264 266 270 275 273 281 274 277 279 280 284 288 291 293 293
255 254 250 245 249 243 244 237 238 244 248 249 238 242 244 240 251 251 240 241 248 249 247 255 258 250 256 257 254 263 269 266 268 270 275 271 275 277 279 278 281 286 291 293 297
254 248 246 246 245 245 239 226 230 240 247 245 234 233 233 240 246 242 236 247 254 251 250 254 267 253 253 257 254 263 270 269 269 268 266 266 268 271 274 278 281 287 290 293 296
254 245 242 243 248 238 241 224 231 235 241 248 234 229 230 237 240 239 230 233 238 245 247 249 255 262 259 254 254 254 258 264 264 262 265 270 266 267 286 285 289 290 292 294 300
261 248 236 236 234 238 230 226 235 235 238 244 235 233 231 232 237 236 231 234 239 243 249 248 253 251 255 254 255 249 251 259 264 266 268 271 268 267 284 284 286 284 288 288 292
258 246 238 230 236 235 230 231 237 235 235 231 233 230 234 233 239 235 234 232 234 234 247 250 256 267 253 256 249 253 251 257 267 275 272 269 275 277 278 281 285 293 293 291 289
267 251 234 236 242 238 234 235 243 240 236 231 229 233 231 231 234 234 233 235 236 235 244 257 258 259 253 255 255 256 259 256 259 263 265 271 271 271 282 284 281 280 281 281 288
277 245 253 239 242 236 235 236 239 252 242 227 231 236 237 236 237 235 236 243 232 233 235 249 258 263 251 250 249 253 255 260 264 260 268 268 271 279 279 284 288 284 273 274 285
271 248 260 230 232 238 236 239 239 239 245 237 231 233 240 236 237 237 237 240 227 230 232 243 259 257 256 269 257 252 255 250 259 260 264 270 272 286 285 284 278 270 270 276 290
262 256 263 243 235 235 235 243 242 238 247 239 237 238 243 247 241 239 240 238 232 232 234 234 250 255 261 265 262 254 255 255 258 268 261 264 267 277 285 289 277 265 270 282 289
262 249 242 246 246 236 238 242 242 244 246 244 244 244 246 245 244 251 244 244 237 232 237 235 250 250 253 263 260 255 255 253 253 259 262 263 269 271 275 271 258 258 270 279 286
258 253 246 235 234 239 241 245 241 242 247 245 246 240 244 253 246 246 241 243 244 233 231 241 247 248 254 259 264 265 255 253 254 256 261 265 265 267 266 260 255 263 268 277 283
263 259 250 249 246 239 240 241 242 244 243 243 242 234 235 246 249 237 233 241 239 229 231 242 254 246 253 257 260 264 260 256 255 256 260 268 267 269 263 258 256 265 271 275 280
253 270 263 248 248 243 241 240 239 242 248 237 236 239 235 239 261 242 233 238 241 228 235 243 245 248 250 255 262 260 254 256 261 259 255 257 253 265 261 258 262 266 271 274 280